Simultaneous Nadir Overpasses (SNOs) Predictions

Prediction of SNOs between GOES-16 and AQUA Satellite Orbit:

Table of predicted SNOs for the next 14.0 days since TLE Epoch: 3/14/2025
Index Date Time (GOES-16) GOES-16 Lat,Lon AQUA Lat,Lon Distance(km) Time Diff (sec)
1 03/16/2025 07:17:29 -0.07, -75.35 -0.93, -71.42 446.88 80
2 03/16/2025 19:36:57 0.06, -75.34 -0.12, -76.12 89.36 80
3 03/18/2025 19:19:59 0.06, -75.38 0.91, -71.32 461.68 80
4 03/19/2025 07:39:18 -0.06, -75.41 0.07, -75.99 66.58 80
5 03/21/2025 07:16:59 -0.06, -75.45 -0.95, -71.17 485.30 80
6 03/21/2025 19:36:26 0.05, -75.44 -0.04, -75.88 50.64 80
7 03/24/2025 07:38:43 -0.04, -75.51 0.02, -75.73 24.53 80
8 03/26/2025 19:38:26 0.03, -75.55 0.01, -75.60 5.30 80
